Find Starlink 34398

NORAD ID: 64445 Int'l Des: 2025-130 Owner: SPXS Country: US Constellation: starlink operational
LEOCIRCULAR

实时位置

正在加载3D地球...

关于 Starlink 34398

正在加载描述...

即将过境

Passes for default location (London). Set your location on the main map for personalized predictions.

高度历史

Loading altitude history...

两行轨道根数

1 64445U 25130H 26106.72981069 .00010340 00000-0 36073-3 0 9991
2 64445 53.1595 272.0930 0001144 97.5644 262.5487 15.30201658 46523
Epoch: Apr 16, 2026 • Age: 21 hours

当前状态

高度 481.0 km
速度 7.63 km/s
星下点 53.30°N, 63.37°W
发射日期 Jun 18, 2025
运行时间 0.8 years
类型 internet

技术详情

分类 Payload
质量 575.00 kg
干质量 530.00 kg
总质量 575.00 kg
长度 0.30 m
直径 4.10 m
跨度 29.00 m
形状 Box + pan
制造商 SPXS
平台类型 Starlink V2MO
阶段状态 In Orbit
所有者/国家 SPXS/US

Most Searched